{"data":{"norad_id":67827,"intl_designator":"2026-033G","name":"STARLINK-36289","alt_names":[],"object_type":"PAYLOAD","status":"ACTIVE","operator":null,"country":"US","launch_date":"2026-02-16","launch_site_code":"AFETR","launch_vehicle":null,"mission":null,"orbit_class":"UNKNOWN","rcs_meters":null,"size_class":null,"mass_kg":null,"dimensions":null,"purposes":["comms"],"wikipedia_slug":null,"has_3d_model":false,"image_url":null,"decayed_at":null,"tle_current":{"epoch":"2026-05-25T03:36:24.554016Z","epoch_age_seconds":62407,"freshness":"FRESH","line1":"1 67827U 26033G   26145.15028419  .00012366  00000+0  45805-3 0  9994","line2":"2 67827  43.0005 195.5993 0001884 268.4725  91.5911 15.27586158 16360","mean_motion":15.27586158,"eccentricity":0.0001884,"inclination_deg":43.0005,"raan_deg":195.5993,"arg_perigee_deg":268.4725,"mean_anomaly_deg":91.5911,"bstar":0.00045805,"rev_number":1636,"period_min":94.266368705863,"perigee_km":481.73801284772,"apogee_km":484.32330082082,"semimajor_km":6861.1676568343,"source":"CELESTRAK","updated_at":"2026-05-25T13:38:21.698488Z"}}}